KISMKEYW

Guest
Details From KISM - Kissimmee Gateway
To KEYW - Key West Intl
Flight Number -
Tags Decoded
Created
Modified
Stats Distance 225 nm / 416 km
Max Altitude 0 ft / 0 m
Waypoints 2
Social Downloads 0
Likes 0
Share VATSIM

Download

Looking for another format? Having issues loading an existing format? Contact us
Advertisement - Login to hide

Notes

Decoded

Route

KISM KEYW

ID Type Via Altitude Latitude Longitude Leg Dist Tot Dist Heading (true) Name
O KISM APT - 0 ft / 0 m 28.28684˚ -81.44405˚ - 0 nm - Kissimmee Gateway
O KEYW APT - 0 ft / 0 m 24.55605˚ -81.76677˚ 224 nm 224 nm 185° / 184° -

Altitude Profile

Advertisement - Login to hide

Weather


0- 5 10 15 20 25 30 35+ Temperature / ° C

Clouds and Precipitation
Forecast for 2018-05-23 18:00 UTC. Updated 2 hours ago

Ground ~20,000 ft ~40,000 ft Winds

KISM

Details ICAO KISM (ISM)
Name Kissimmee Gateway
Region United States
Timezone America/New_York (UTC-4.0)
Stats Elevation 82 ft / 25 m (AMSL)
Location 28.289863° -81.437113°
Runways 2
Magnetic Variation 6.340° W

METAR

KISM 231856Z 00000KT 10SM FEW055 BKN080 30/19 A3008 RMK AO2 SLP187 T03000189

Decode

TAF

TAF KISM 231722Z 2318/2418 13009KT P6SM VCSH SCT040 BKN060 FM240000 12006KT P6SM FEW045 SCT070 SCT250 FM241400 13005KT P6SM SCT030 BKN250

Decode

Departure Runways

ID Width Length Bearing (true) Bearing (mag) Surface Threshold Offset Overrun Length
06 150 ft / 46 m 5,000 ft / 1,524 m 57.93° 64.27° Asphalt 0 ft / 0 m 0 ft / 0 m
15 100 ft / 30 m 6,012 ft / 1,833 m 148.21° 154.55° Asphalt 500 ft / 152 m 0 ft / 0 m
24 150 ft / 46 m 5,000 ft / 1,524 m 237.93° 244.27° Asphalt 0 ft / 0 m 485 ft / 148 m
33 100 ft / 30 m 6,012 ft / 1,833 m 328.22° 334.56° Asphalt 0 ft / 0 m 0 ft / 0 m

KEYW

Details ICAO KEYW (EYW)
Name Key West Intl
Region United States
Timezone America/New_York (UTC-4.0)
Stats Elevation 2 ft / 1 m (AMSL)
Location 24.556124° -81.759546°
Runways 1
Magnetic Variation 5.593° W

METAR

KEYW 231853Z 14009KT 10SM FEW021 FEW028 SCT055 27/24 A3004 RMK AO2 SLP173 T02720244

Decode

TAF

KEYW 231724Z 2318/2418 12010G19KT P6SM VCSH SCT025 BKN150 FM240000 13008KT P6SM SCT025 BKN150

Decode

Destination Runways

ID Width Length Bearing (true) Bearing (mag) Surface Threshold Offset Overrun Length
09 100 ft / 30 m 4,794 ft / 1,461 m 89.38° 94.97° Asphalt 151 ft / 46 m 0 ft / 0 m
27 100 ft / 30 m 4,794 ft / 1,461 m 269.39° 274.98° Asphalt 151 ft / 46 m 0 ft / 0 m

Popular Alternatives